This is the latest recevied weather packets stored in our database for station/object KD8ZLZ-13. If no packets are shown the sender has not sent any weather packets the latest 10 day(s).
| Time | Temp. | Humidity | Pressure | Rain* | Wind** | Luminosity | Snow |
|---|---|---|---|---|---|---|---|
| 1777573666 | 11.11° C | 43% | 1015.6 hPa | 0 mm | - | 401 W/m² | - |
| 1777573066 | 12.22° C | 43% | 1015.3 hPa | 0 mm | - | 824 W/m² | - |
| 1777572466 | 11.11° C | 43% | 1015.6 hPa | 0 mm | - | 460 W/m² | - |
| 1777571866 | 11.11° C | 46% | 1015.6 hPa | 0 mm | - | 999 W/m² | - |
| 1777571266 | 10.56° C | 45% | 1015.6 hPa | 0 mm | - | 260 W/m² | - |
| 1777570666 | 11.67° C | 45% | 1015.6 hPa | 0 mm | - | 885 W/m² | - |
| 1777570066 | 10.56° C | 46% | 1015.6 hPa | 0 mm | - | 246 W/m² | - |
| 1777569466 | 11.67° C | 46% | 1015.6 hPa | 0 mm | - | 112 W/m² | - |
| 1777568866 | 11.11° C | 47% | 1015.6 hPa | 0 mm | - | 373 W/m² | - |
| 1777568266 | 10.56° C | 46% | 1015.9 hPa | 0 mm | - | 233 W/m² | - |
| 1777567666 | 11.67° C | 45% | 1015.9 hPa | 0 mm | - | 112 W/m² | - |
| 1777567066 | 10.56° C | 49% | 1015.9 hPa | 0 mm | - | 558 W/m² | - |
| 1777566466 | 11.11° C | 47% | 1015.9 hPa | 0 mm | - | 927 W/m² | - |
| 1777565866 | 10.56° C | 49% | 1015.9 hPa | 0 mm | - | 679 W/m² | - |
| 1777565266 | 10.56° C | 52% | 1015.9 hPa | 0 mm | - | 668 W/m² | - |
| 1777564666 | 10° C | 55% | 1015.9 hPa | 0 mm | - | 534 W/m² | - |
| 1777564066 | 9.44° C | 57% | 1015.9 hPa | 0 mm | - | 309 W/m² | - |
| 1777563466 | 10° C | 54% | 1015.9 hPa | 0 mm | - | 631 W/m² | - |
| 1777562866 | 9.44° C | 57% | 1015.9 hPa | 0 mm | - | 341 W/m² | - |
| 1777562266 | 9.44° C | 55% | 1015.9 hPa | 0 mm | - | 788 W/m² | - |
| 1777561666 | 9.44° C | 57% | 1015.6 hPa | 0 mm | - | 435 W/m² | - |
| 1777561066 | 8.89° C | 56% | 1015.6 hPa | 0 mm | - | 549 W/m² | - |
| 1777560466 | 8.89° C | 56% | 1015.6 hPa | 0 mm | - | 549 W/m² | - |
| 1777559866 | 8.89° C | 60% | 1015.6 hPa | 0 mm | - | 371 W/m² | - |
| 1777559266 | 8.33° C | 61% | 1015.6 hPa | 0 mm | - | 411 W/m² | - |
* Rain latest hour (hover to see other rain measurements)
** Current wind speed in m/s (hover to see current wind gust speed)